Preview of NWS' New Version of Forecast
This preview is not operational and should not be used for support decisions.

Regional Weather Roundup (RWR)

Issued by Gray - Portland, ME (GYX)

                            
000
ASUS41 KGYX 260010
RWRGYX
WEATHER ROUNDUP FOR MAINE AND NEW HAMPSHIRE
NATIONAL WEATHER SERVICE GRAY ME
800 PM EDT TUE JUN 25 2019

MEZ002-005-006-010-012-015-018-020-021-024-026-027-029-260100-
MAINE
  
CITY           SKY/WX    TMP DP  RH WIND       PRES   REMARKS
PORTLAND       LGT RAIN  62  60  93 SE8       29.92S FOG              
6HR MIN TEMP:  58; 6HR MAX TEMP:  62; 6HR PCP:  0.23;                

SANFORD        RAIN      64  64 100 VRB5      29.90S FOG              
BAR HARBOR     MOCLDY    59  52  77 SE6       29.99S                  
WISCASSET      LGT RAIN  60  58  92 VRB5      29.95S FOG              
6HR MIN TEMP:  59; 6HR MAX TEMP:  66; 6HR PCP:  0.05;                

ROCKLAND       LGT RAIN  58  55  90 SE6       29.96S                  
FRYEBURG       LGT RAIN  61  60  97 E3        29.92R FOG              
6HR MIN TEMP:  61; 6HR MAX TEMP:  65; 6HR PCP:  0.58;                

LEWISTONAUBURN LGT RAIN  61  60  97 SE7       29.92F                  
AUGUSTA        RAIN      58  58 100 SE9       29.94S FOG              
6HR MIN TEMP:  58; 6HR MAX TEMP:  70; 6HR PCP:  0.13;                

WATERVILLE     HVY RAIN  59  58  96 CALM      29.92F FOG              
BANGOR         CLOUDY    62  53  72 S7        29.97S                  
6HR MIN TEMP:  62; 6HR MAX TEMP:  75; 6HR PCP: TRACE;                

GREENVILLE       N/A     58  50  75 VRB5      29.95R                  
6HR MIN TEMP:  58; 6HR MAX TEMP:  70;                                

MILLINOCKET    MOCLDY    67  45  45 VRB3      29.97R                  
6HR MIN TEMP:  67; 6HR MAX TEMP:  78;                                

HOULTON        MOCLDY    68  43  40 S9G16     29.95R                  
6HR MIN TEMP:  68; 6HR MAX TEMP:  77;                                

PRESQUE ISLE   MOCLDY    69  50  50 S15G22    29.94R                  
6HR MIN TEMP:  69; 6HR MAX TEMP:  76;                                

FRENCHVILLE    MOCLDY    70  49  47 SE12      29.91R                  
6HR MIN TEMP:  70; 6HR MAX TEMP:  76;                                

CARIBOU        MOCLDY    70  49  47 S13       29.92R                  
6HR MIN TEMP:  70; 6HR MAX TEMP:  76;                                

$$

NHZ002-005-008-009-011-012-014-260100-
NEW HAMPSHIRE
  
CITY           SKY/WX    TMP DP  RH WIND       PRES   REMARKS
PORTSMOUTH     LGT RAIN  64  64 100 SE8       29.88R                  
ROCHESTER      LGT RAIN  65  64  97 S8        29.89R FOG              
6HR MIN TEMP:  62; 6HR MAX TEMP:  66; 6HR PCP:  0.14;                

NASHUA         MOCLDY    70  70 100 SE8       29.87F                  
MANCHESTER     LGT RAIN  70  68  93 SE16      29.85S                  
6HR MIN TEMP:  67; 6HR MAX TEMP:  72; 6HR PCP:  0.35;                

CONCORD        CLOUDY    68  67  96 CALM      29.88R                  
6HR MIN TEMP:  65; 6HR MAX TEMP:  69; 6HR PCP:  0.15;                

LACONIA        LGT RAIN  64  63  96 E6        29.89S                  
PLYMOUTH       CLOUDY    64  62  94 CALM      29.89S                  
BERLIN         CLOUDY    63  60  90 NE3       29.91S                  
6HR MIN TEMP:  63; 6HR MAX TEMP:  65; 6HR PCP:  0.56;                

WHITEFIELD     FAIR      64  60  87 E3        29.88F                  
6HR MIN TEMP:  62; 6HR MAX TEMP:  67; 6HR PCP:  0.69;                

JAFFREY        CLOUDY    71  67  87 S3        29.90R                  
6HR MIN TEMP:  65; 6HR MAX TEMP:  71; 6HR PCP:  0.33;                

KEENE          FAIR      69  68  96 CALM      29.87S                  
LEBANON        CLOUDY    69  63  81 NW3       29.87R                  
6HR MIN TEMP:  65; 6HR MAX TEMP:  70; 6HR PCP:  0.19;                

MT WASHINGTON  LGT RAIN  50  50 100 NW22        N/A                   
6HR MIN TEMP:  48; 6HR MAX TEMP:  52; 6HR PCP:  0.90;                

$$

VTZ005-007-008-260100-
VERMONT
  
CITY           SKY/WX    TMP DP  RH WIND       PRES   REMARKS
ST JOHNSBURY     N/A     66  64  93 MISG      29.86S                  
MONTPELIER     CLOUDY    66  63  90 VRB3      29.92R                  
BURLINGTON     FAIR      75  66  73 E6        29.81R                  
$$

MAZ007-012-024-CTZ003-RIZ002-NYZ038-NYZ072-260100-
SOUTHERN NEW ENGLAND AND NY
  
CITY           SKY/WX    TMP DP  RH WIND       PRES   REMARKS
BOSTON         CLOUDY    71  66  84 S16       29.89R                  
WORCESTER      CLOUDY    66  66 100 S12       29.89F                  
NANTUCKET      MOCLDY    63  62  97 S6        29.95R                  
PROVIDENCE     LGT RAIN  67  67 100 S10       29.90R FOG              
HARTFORD       CLOUDY    73  69  87 S7        29.86R                  
ALBANY         FAIR      79  63  57 W8        29.84R                  
NEW YORK CITY  MOCLDY    82  70  66 S9        29.83R                  
$$

ANZ081-ANZ082-ANZ150-NHZ014-MEZ023>029-260100-
COASTAL MARINE OBSERVATIONS
  
STATION/POSITION TIME  TEMP    WIND        PRES    WAVE
                       AIR SEA DIR/SP/G            HT/PER
                 (UTC) (F)     (DEG/KT/KT) (MB)    (FT/S)
ISLE OF SHOALS   2300   62     160/ 22/ 23 1011.3R
JEFFREYS LEDGE   2338      58                N/A     3/ 4
CASHES LEDGE BUO 2350   58 56  140/ 12/ 14 1014.4R   2/ 4
GEORGES BANK BUO 2350   59 57  130/  8/ 10 1018.0R   2/ 6
$$

.............KEY..............
   WCI - WIND CHILL
   TC  - TEMPERATURE IN CELSIUS
   VSB - VISIBILITY IN MILES
   HX  - HEAT INDEX
   FAIR- INDICATES FEW OR NO CLOUDS BELOW 12,000 FT, WITH NO 
         SIGNIFICANT WEATHER AND/OR OBSTRUCTIONS TO VISIBILITY.